TimeEST,TemperatureF,Dew PointF,Humidity,Sea Level PressureIn,VisibilityMPH,Wind Direction,Wind SpeedMPH,Gust SpeedMPH,PrecipitationIn,Events,Conditions,WindDirDegrees,DateUTC
12:52 AM,21.0,7.0,55,29.44,10.0,WNW,9.2,17.3,N/A,,Unknown,300,2013-02-01 05:52:00
1:52 AM,21.0,3.9,48,29.46,10.0,West,8.1,20.7,N/A,,Overcast,270,2013-02-01 06:52:00
2:52 AM,19.9,7.0,57,29.47,10.0,Variable,3.5,-,N/A,,Overcast,0,2013-02-01 07:52:00
3:52 AM,19.0,7.0,59,29.48,10.0,Variable,6.9,21.9,N/A,,Overcast,0,2013-02-01 08:52:00
4:52 AM,17.1,8.1,68,29.52,7.0,NNW,10.4,17.3,0.00,Snow,Light Snow,330,2013-02-01 09:52:00
5:15 AM,15.8,8.6,73,29.48,2.5,West,10.4,19.6,0.00,Snow,Light Snow,280,2013-02-01 10:15:00
5:26 AM,15.8,6.8,68,29.49,4.0,West,10.4,18.4,0.00,Snow,Light Snow,280,2013-02-01 10:26:00
5:37 AM,15.8,6.8,68,29.50,4.0,Variable,6.9,18.4,0.00,Snow,Light Snow,0,2013-02-01 10:37:00
5:52 AM,15.1,6.1,68,29.56,6.0,Variable,5.8,-,0.00,,Haze,0,2013-02-01 10:52:00
6:15 AM,14.0,5.0,67,29.52,10.0,Variable,5.8,-,N/A,,Mostly Cloudy,0,2013-02-01 11:15:00
6:29 AM,12.2,3.2,67,29.53,10.0,Variable,6.9,-,N/A,,Scattered Clouds,0,2013-02-01 11:29:00
7:43 AM,12.2,3.2,67,29.58,7.0,NW,8.1,16.1,N/A,,Mostly Cloudy,320,2013-02-01 12:43:00
7:52 AM,12.0,3.0,67,29.65,3.0,WNW,9.2,17.3,0.00,Snow,Light Snow,300,2013-02-01 12:52:00
8:52 AM,12.9,3.0,65,29.68,10.0,WNW,8.1,17.3,0.00,,Overcast,300,2013-02-01 13:52:00
9:16 AM,12.2,1.4,62,29.63,10.0,West,10.4,19.6,N/A,,Partly Cloudy,280,2013-02-01 14:16:00
9:52 AM,14.0,1.0,56,29.70,10.0,West,10.4,19.6,N/A,,Clear,270,2013-02-01 14:52:00
10:52 AM,16.0,1.0,52,29.73,10.0,WNW,9.2,-,N/A,,Clear,290,2013-02-01 15:52:00
11:52 AM,17.1,1.0,50,29.75,10.0,Variable,6.9,19.6,N/A,,Clear,0,2013-02-01 16:52:00
12:52 PM,17.1,1.0,50,29.75,10.0,West,8.1,18.4,N/A,,Partly Cloudy,260,2013-02-01 17:52:00
1:52 PM,18.0,1.9,50,29.76,10.0,West,10.4,17.3,N/A,,Mostly Cloudy,270,2013-02-01 18:52:00
2:52 PM,17.1,1.9,52,29.78,10.0,NW,6.9,17.3,N/A,,Mostly Cloudy,310,2013-02-01 19:52:00
3:52 PM,15.1,-0.0,51,29.82,10.0,NW,10.4,20.7,N/A,,Scattered Clouds,310,2013-02-01 20:52:00
4:52 PM,12.9,-0.9,54,29.85,10.0,Variable,6.9,16.1,N/A,,Clear,0,2013-02-01 21:52:00
5:52 PM,10.9,-0.9,59,29.90,10.0,WNW,8.1,-,N/A,,Clear,300,2013-02-01 22:52:00
6:52 PM,10.0,-0.9,61,29.94,10.0,WNW,6.9,-,N/A,,Scattered Clouds,300,2013-02-01 23:52:00
7:52 PM,10.0,-0.9,61,29.98,10.0,Variable,4.6,-,N/A,,Mostly Cloudy,0,2013-02-02 00:52:00
8:16 PM,10.4,-0.4,62,29.92,10.0,Variable,4.6,-,N/A,,Mostly Cloudy,0,2013-02-02 01:16:00
8:52 PM,9.0,-0.9,64,30.01,10.0,NW,9.2,-,N/A,,Partly Cloudy,310,2013-02-02 01:52:00
9:52 PM,9.0,-2.0,61,30.03,10.0,Calm,Calm,-,N/A,,Mostly Cloudy,0,2013-02-02 02:52:00
10:52 PM,9.0,-2.0,61,30.04,10.0,Calm,Calm,-,N/A,,Overcast,0,2013-02-02 03:52:00
11:52 PM,9.0,-2.0,61,30.05,10.0,Calm,Calm,-,N/A,,Mostly Cloudy,0,2013-02-02 04:52:00